Rbgn^[z[y[W
メイン
   新天体発見情報
     Comet P/2006 D1 = 2018 T1 (Hill)
投稿するにはまず登録を

フラット表示 前のトピック | 次のトピック
投稿者 スレッド
佐藤裕久
投稿日時: 2018-10-12 23:27
モデレータ
登録日: 2005-6-12
居住地: 日本
投稿: 2687
オンライン
Comet P/2006 D1 = 2018 T1 (Hill)

K. Sarneczky (Konkoly天文台)の通報によると、10月5.1日UT、Piszkesteto観測所の0.60-m 
Schmid望遠鏡で得た画像からP/2006 D1を検出した。
イメージは恒星状で、6.1日UTに1.02-m 反射望遠鏡で得たフィルターなしのフレームにもコマ
や尾はなかった。
MPC 94682のG. V. Williamsの予報に対して、Delta(T)は、-0.22 dayであった。

検出位置は次のとおり、

     2018 UT             R.A. (2000) Decl.       Mag.   Observer
     Oct.  5.10066    7 56 18.29   +38 50 53.7   20.6   Sarneczky
           5.10873    7 56 19.58   +38 50 53.0   20.7     "
           5.11681    7 56 20.88   +38 50 52.9   20.5     "
           6.08736    7 58 58.07   +38 50 03.3   20.8     "
           6.09267    7 58 58.92   +38 50 03.1   21.2     "
           6.09798    7 58 59.76   +38 50 02.9   21.1     "

連結軌道要素と位置推算表は次のとおり、

Orbital elements:
    P/2006 D1 (Hill)
Epoch 2005 Nov. 6.0 TT = JDT 2453680.5
T 2005 Oct. 25.99332 TT                                 MPCW
q   1.8921961            (2000.0)            P               Q
n   0.07527703     Peri.  118.19442     -0.48636834     -0.87373966
a   5.5551321      Node     0.95199     +0.65886999     -0.37049614
e   0.6593787      Incl.   17.45997     +0.57387819     -0.31513747
P  13.09
From 82 observations 2005 Dec. 5-2018 Oct. 6, mean residual 0".5.

    P/2006 D1 (Hill)
Epoch 2018 Dec. 28.0 TT = JDT 2458480.5
T 2018 Dec. 21.43815 TT                                 MPCW
q   1.8951894            (2000.0)            P               Q
n   0.07511970     Peri.  119.42683     -0.49079055     -0.87127757
a   5.5628858      Node   359.96408     +0.65956481     -0.37139245
e   0.6593154      Incl.   17.36554     +0.56929685     -0.32084739
P  13.12
From 82 observations 2005 Dec. 5-2018 Oct. 6, mean residual 0".5.

    P/2006 D1 (Hill)
Epoch 2032 Jan. 9.0 TT = JDT 2463240.5
T 2032 Jan. 17.56581 TT                                 MPCW
q   1.8908457            (2000.0)            P               Q
n   0.07536772     Peri.  119.47277     -0.48834701     -0.87264853
a   5.5506748      Node   359.74774     +0.66084848     -0.36883565
e   0.6593485      Incl.   17.37719     +0.56990919     -0.32006999
P  13.08
From 82 observations 2005 Dec. 5-2018 Oct. 6, mean residual 0".5.

    P/2006 D1 (Hill)
Epoch 2019 Apr. 27.0 TT = JDT 2458600.5
T 2018 Dec. 21.43639 TT                                 MPCW
q   1.8952011            (2000.0)            P               Q
n   0.07515527     Peri.  119.42803     -0.49079655     -0.87127419
a   5.5611307      Node   359.96324     +0.65955952     -0.37139216
e   0.6592058      Incl.   17.36596     +0.56929780     -0.32085691
P  13.11
From 82 observations 2005 Dec. 5-2018 Oct. 6, mean residual 0".5.

Ephemeris:
    P/2006 D1 (Hill)
Date    TT    R. A. (2000) Decl.     Delta      r     Elong.  Phase   m1
2018 09 06    06 37 22.0 +38 18 07   2.3682  2.1714    66.4    25.2  21.2
...
2018 09 21    07 17 58.6 +38 49 08   2.1711  2.1044    72.7    27.1  20.9
...
2018 09 29    07 39 45.6 +38 53 20   2.0695  2.0716    76.1    28.0  20.7
...
2018 10 05    07 56 01.7 +38 50 59   1.9952  2.0486    78.7    28.6  20.6
2018 10 06    07 58 43.6 +38 50 09   1.9830  2.0448    79.1    28.7  20.6
2018 10 07    08 01 25.2 +38 49 12   1.9708  2.0412    79.5    28.8  20.6
...
2018 10 13    08 17 27.5 +38 40 55   1.8987  2.0199    82.1    29.3  20.4
...
2018 10 21    08 38 24.2 +38 23 33   1.8056  1.9938    85.6    29.9  20.3
...
2018 11 05    09 15 40.1 +37 34 52   1.6404  1.9525    92.4    30.5  20.0

(CBET 4560、MPEC 2018-T62)

フラット表示 前のトピック | 次のトピック

題名 投稿者 日時
 » Comet P/2006 D1 = 2018 T1 (Hill) 佐藤裕久 2018-10-12 23:27

投稿するにはまず登録を
 
© 1999 Tsutomu Seki.